Bradshaw AFB, HI

9:12 PM HST on November 18, 2017 (GMT -1000)
Bradshaw Army Air Field

Weather History for PHSF - September, 2013

Change the Weather History Date:

Sunday, September 29, 2013

  Actual Average Record
Temperature  
Mean Temperature 56 °F -  
Max Temperature 68 °F 69 °F 77 °F (2003)
Min Temperature 45 °F 49 °F 44 °F (2017)
Degree Days  
Heating Degree Days 8    
Growing Degree Days 6 (Base 50)    
Moisture  
Dew Point 49 °F    
Average Humidity 73    
Maximum Humidity 100    
Minimum Humidity 57    
Precipitation  
Precipitation 0.00 in - - ()
Sea Level Pressure  
Sea Level Pressure 30.32 in    
Wind  
Wind Speed 8 mph (SSE)    
Max Wind Speed 18 mph    
Max Gust Speed 30 mph    
Visibility 11 miles    
Events      
Averages and records for this station are not official NWS values.
T = Trace of Precipitation, MM = Missing Value Source: NWS Daily Summary

Daily Weather History Graph

Daily Weather History Graph

Search for Another Location

Airport or City:

Trip Planner

Search our weather history database for the weather conditions in past years. The results will help you decide how hot, cold, wet, or windy it might be!

Date:

Astronomy

Sep. 29, 2013 Rise Set
Actual Time 6:12 AM HST 6:11 PM HST
Civil Twilight 5:50 AM HST 6:33 PM HST
Nautical Twilight 5:25 AM HST 6:59 PM HST
Astronomical Twilight 4:59 AM HST 7:24 PM HST
Moon 1:38 AM HST (9/29) 2:43 PM HST (9/29)
Length of Visible Light 12h 42m
Length of Day
11h 59m
Waning Crescent, 25% of the Moon is Illuminated
Sep 29
Waning Crescent
Oct 4
New
Oct 11
First Quarter
Oct 18
Full
Oct 26
Last Quarter

Hourly Weather History & Observations

Time (HST) Temp. Windchill Dew Point Humidity Pressure Visibility Wind Dir Wind Speed Gust Speed Precip Events Conditions
12:56 AM 48.7 °F - 45.9 °F 90% 30.35 in 12.0 mi ESE 5.8 mph - N/A   Clear
1:56 AM 47.5 °F - 40.3 °F 76% 30.34 in 12.0 mi ESE 5.8 mph - N/A   Clear
2:56 AM 46.6 °F - 38.1 °F 72% 30.32 in 12.0 mi ESE 5.8 mph - N/A   Clear
3:56 AM 47.8 °F - 41.4 °F 78% 30.31 in 12.0 mi ESE 6.9 mph - N/A   Clear
4:56 AM 45.7 °F 44.4 °F 36.9 °F 71% 30.31 in 12.0 mi SE 3.5 mph - N/A   Clear
5:56 AM 47.7 °F - 45.9 °F 93% 30.33 in 12.0 mi ESE 4.6 mph - N/A   Clear
6:46 AM 48.2 °F - 48.2 °F 100% 30.33 in 2.2 mi SE 8.1 mph - N/A   Scattered Clouds
6:56 AM 50.0 °F - 49.5 °F 98% 30.33 in 7.0 mi SE 6.9 mph 16.1 mph N/A   Partly Cloudy
7:56 AM 55.2 °F - 51.3 °F 87% 30.34 in 11.0 mi SE 9.2 mph 18.4 mph N/A   Clear
8:56 AM 62.2 °F - 51.1 °F 67% 30.35 in 12.0 mi SSE 9.2 mph 16.1 mph N/A   Clear
9:35 AM 62.6 °F - 53.6 °F 72% 30.36 in 12.0 mi South 12.7 mph 19.6 mph N/A   Clear
9:57 AM 62.8 °F - 52.9 °F 70% 30.35 in 12.0 mi South 12.7 mph 20.7 mph N/A   Partly Cloudy
10:31 AM 66.2 °F - 53.6 °F 64% 30.35 in 12.0 mi SE 15.0 mph 21.9 mph N/A   Partly Cloudy
10:56 AM 63.0 °F - 52.9 °F 70% 30.35 in 12.0 mi South 6.9 mph 16.1 mph N/A   Mostly Cloudy
11:11 AM 62.6 °F - 53.6 °F 72% 30.35 in 12.0 mi SSW 5.8 mph 13.8 mph N/A   Mostly Cloudy
11:16 AM 64.4 °F - 53.6 °F 68% 30.34 in 12.0 mi SSE 10.4 mph 16.1 mph N/A   Mostly Cloudy
11:21 AM 64.4 °F - 53.6 °F 68% 30.34 in 12.0 mi South 12.7 mph 19.6 mph N/A   Mostly Cloudy
11:56 AM 68.2 °F - 52.5 °F 57% 30.33 in 12.0 mi ESE 10.4 mph 20.7 mph N/A   Mostly Cloudy
12:08 PM 66.2 °F - 51.8 °F 60% 30.31 in 8.0 mi West 18.4 mph 29.9 mph N/A   Mostly Cloudy
12:13 PM 64.4 °F - 51.8 °F 64% 30.31 in 7.0 mi West 16.1 mph 29.9 mph N/A   Mostly Cloudy
12:17 PM 64.4 °F - 51.8 °F 64% 30.31 in 8.0 mi West 13.8 mph 23.0 mph N/A   Mostly Cloudy
12:18 PM 64.4 °F - 51.8 °F 64% 30.31 in 9.0 mi WSW 13.8 mph 23.0 mph N/A   Mostly Cloudy
12:56 PM 61.7 °F - 51.8 °F 70% 30.32 in 12.0 mi WSW 6.9 mph - N/A   Overcast
1:56 PM 61.5 °F - 53.6 °F 75% 30.29 in 12.0 mi WSW 9.2 mph 17.3 mph N/A   Mostly Cloudy
2:56 PM 63.0 °F - 54.7 °F 74% 30.28 in 12.0 mi WSW 8.1 mph 15.0 mph N/A   Mostly Cloudy
3:06 PM 64.4 °F - 55.4 °F 73% 30.28 in 12.0 mi WSW 9.2 mph 16.1 mph N/A   Mostly Cloudy
3:36 PM 62.6 °F - 51.8 °F 68% 30.28 in 12.0 mi SSW 6.9 mph 15.0 mph N/A   Mostly Cloudy
3:46 PM 62.6 °F - 51.8 °F 68% 30.27 in 12.0 mi South 6.9 mph - N/A   Mostly Cloudy
3:56 PM 64.8 °F - 52.0 °F 63% 30.27 in 12.0 mi South 10.4 mph 15.0 mph N/A   Scattered Clouds
4:46 PM 62.6 °F - 50.0 °F 63% 30.27 in 12.0 mi SSE 12.7 mph 19.6 mph N/A   Mostly Cloudy
4:56 PM 61.9 °F - 50.5 °F 66% 30.27 in 12.0 mi SE 13.8 mph 18.4 mph N/A   Mostly Cloudy
5:31 PM 59.0 °F - 50.0 °F 72% 30.28 in 12.0 mi SSE 13.8 mph 20.7 mph N/A   Mostly Cloudy
5:57 PM 58.3 °F - 49.1 °F 71% 30.29 in 12.0 mi SSE 12.7 mph 23.0 mph N/A   Mostly Cloudy
6:56 PM 55.4 °F - 49.3 °F 80% 30.31 in 12.0 mi SSE 10.4 mph - N/A   Clear
7:25 PM 55.4 °F - 50.0 °F 82% 30.31 in 12.0 mi SE 12.7 mph 20.7 mph N/A   Clear
7:56 PM 54.7 °F - 48.7 °F 80% 30.33 in 12.0 mi SE 8.1 mph 16.1 mph N/A   Clear
8:56 PM 52.5 °F - 48.4 °F 86% 30.35 in 12.0 mi ESE 8.1 mph 18.4 mph N/A   Clear
9:56 PM 51.8 °F - 46.4 °F 82% 30.35 in 12.0 mi North 3.5 mph - N/A   Clear
10:56 PM 51.1 °F - 40.8 °F 68% 30.34 in 12.0 mi ESE 4.6 mph - N/A   Clear
11:56 PM 50.2 °F - 40.6 °F 70% 30.32 in 12.0 mi East 4.6 mph - N/A   Clear